STARLINK-2675 (48470 NORAD) Tracking and Keplerian Element Data

This shows tracking and keplerian element data for the satellite.

Feedback or suggestion? Click here.




ElementValue
Catalog48470
NameSTARLINK-2675
Epoch Orbit359
Epoch Day210.91668981
Epoch Year2021
RAAN190.3553
Inclination53.054
Eccentricity0.0001629
Argument of Perigee86.7523
Mean Anonmoly8.1339
Mean Motion15.06410012
Decay Rate-0.00019695
L11 48470U 21040AU 21210.91668981 -.00019695 00000-0 -13066-2 0 9994
L22 48470 53.0540 190.3553 0001629 86.7523 8.1339 15.06410012 3598

Live tracking and technical data element details for STARLINK-2675 (NORAD 48470). STARLINK-2675 can be tracked NOW for your location showing map with azimuth and elevation plus other details from your city location.

Track the satellite on the map from your city or location and see movement details for azimuth, elevation, latitude, longitude, range, height, and movement on the map or in text.







IsCatalogInMostPopularTable: catalog: 48470, numindb: 30
Update: records affected: 1



GetName: 48470 STARLINK-2675

Hit Count: updated at: Sat, 31 Jul 2021 16:37:27 GMT